CEB119 RPVE-RPLL

Flight info

Callsign CEB119
Flight time 0h 40m
Altitude 26000
Route MINOR8A MINOR B473 LAIYA LAIYA5P
Aircraft A320/M-SDE3FGHIRWY/LB1

Departure

Time 2026-04-19 05:06
Airport Godofredo P. Ramos Airport (RPVE)

Arrival

Time 2026-04-19 05:46
Airport Ninoy Aquino International Airport (RPLL)
Time Latitude Longitude Altitude Speed Heading
2026-04-19 04:53 11.92648 121.96367 29 ft 0 kts 153°
2026-04-19 04:57 11.92648 121.96366 30 ft 0 kts 153°
2026-04-19 04:57 11.92655 121.96363 30 ft 2 kts 153°
2026-04-19 04:57 11.92668 121.96356 29 ft 2 kts 153°
2026-04-19 04:57 11.92681 121.96349 29 ft 2 kts 153°
2026-04-19 04:58 11.92693 121.96343 29 ft 1 kts 176°
2026-04-19 04:58 11.92704 121.96347 29 ft 1 kts 233°
2026-04-19 04:58 11.92707 121.96352 29 ft 0 kts 248°
2026-04-19 04:58 11.92708 121.96355 29 ft 0 kts 243°
2026-04-19 05:01 11.92708 121.96354 29 ft 0 kts 243°
2026-04-19 05:01 11.92696 121.96331 29 ft 6 kts 242°
2026-04-19 05:01 11.92662 121.96268 29 ft 13 kts 243°
2026-04-19 05:01 11.92649 121.96197 29 ft 9 kts 313°
2026-04-19 05:02 11.92708 121.96161 29 ft 10 kts 332°
2026-04-19 05:02 11.92775 121.96124 29 ft 11 kts 331°
2026-04-19 05:02 11.92788 121.96059 29 ft 11 kts 241°
2026-04-19 05:02 11.92746 121.95975 29 ft 14 kts 243°
2026-04-19 05:03 11.92697 121.95878 29 ft 15 kts 243°
2026-04-19 05:03 11.92643 121.95773 29 ft 18 kts 241°
2026-04-19 05:03 11.92582 121.95648 29 ft 20 kts 241°
2026-04-19 05:03 11.92519 121.95523 29 ft 20 kts 242°
2026-04-19 05:04 11.92454 121.95396 29 ft 20 kts 240°
2026-04-19 05:04 11.92390 121.95268 29 ft 20 kts 246°
2026-04-19 05:04 11.92327 121.95141 29 ft 20 kts 242°
2026-04-19 05:04 11.92239 121.95032 29 ft 19 kts 238°
2026-04-19 05:05 11.92244 121.95000 29 ft 2 kts 48°
2026-04-19 05:05 11.92287 121.95061 29 ft 12 kts 63°
2026-04-19 05:05 11.92290 121.95068 29 ft 0 kts 63°
2026-04-19 05:06 11.92389 121.95267 30 ft 75 kts 63°
2026-04-19 05:06 11.92750 121.95975 87 ft 141 kts 62°
2026-04-19 05:06 11.93213 121.96877 792 ft 145 kts 64°
2026-04-19 05:06 11.93642 121.97743 1701 ft 138 kts 63°
2026-04-19 05:07 11.94066 121.98600 2293 ft 140 kts 63°
2026-04-19 05:07 11.94532 121.99538 2637 ft 157 kts 63°
2026-04-19 05:07 11.95060 122.00596 3015 ft 176 kts 63°
2026-04-19 05:07 11.95642 122.01759 3452 ft 193 kts 62°
2026-04-19 05:08 11.96482 122.02904 3857 ft 213 kts 41°
2026-04-19 05:08 11.99350 122.04489 4774 ft 254 kts 27°
2026-04-19 05:08 12.00988 122.05297 5372 ft 267 kts 27°
2026-04-19 05:09 12.02670 122.06133 6193 ft 271 kts 28°
2026-04-19 05:09 12.04370 122.06987 7017 ft 274 kts 28°
2026-04-19 05:09 12.06087 122.07851 7822 ft 277 kts 29°
2026-04-19 05:09 12.07819 122.08726 8606 ft 280 kts 29°
2026-04-19 05:10 12.09572 122.09613 9370 ft 283 kts 30°
2026-04-19 05:10 12.11341 122.10510 10129 ft 286 kts 29°
2026-04-19 05:10 12.13159 122.11437 10659 ft 297 kts 29°
2026-04-19 05:10 12.15049 122.12400 10979 ft 314 kts 28°
2026-04-19 05:11 12.17092 122.13437 11298 ft 330 kts 28°
2026-04-19 05:11 12.19169 122.14489 11837 ft 336 kts 27°
2026-04-19 05:11 12.21279 122.15558 12486 ft 338 kts 27°
2026-04-19 05:11 12.23399 122.16632 13104 ft 340 kts 27°
2026-04-19 05:12 12.25528 122.17709 13671 ft 342 kts 27°
2026-04-19 05:12 12.27654 122.18784 14185 ft 346 kts 27°
2026-04-19 05:12 12.29849 122.19895 14678 ft 350 kts 27°
2026-04-19 05:12 12.32047 122.21011 15164 ft 354 kts 27°
2026-04-19 05:13 12.34306 122.22053 15607 ft 359 kts 18°
2026-04-19 05:13 12.36807 122.22345 16040 ft 365 kts 356°
2026-04-19 05:13 12.39283 122.21697 16508 ft 370 kts 336°
2026-04-19 05:13 12.41493 122.20306 16969 ft 374 kts 327°
2026-04-19 05:14 12.43628 122.18811 17395 ft 377 kts 327°
2026-04-19 05:14 12.45810 122.17284 17821 ft 380 kts 327°
2026-04-19 05:14 12.48016 122.15744 18244 ft 383 kts 327°
2026-04-19 05:14 12.50217 122.14211 18655 ft 386 kts 327°
2026-04-19 05:15 12.52457 122.12652 19053 ft 388 kts 326°
2026-04-19 05:15 12.54684 122.11104 19428 ft 391 kts 326°
2026-04-19 05:15 12.56954 122.09524 19811 ft 394 kts 326°
2026-04-19 05:15 12.59234 122.07938 20188 ft 396 kts 326°
2026-04-19 05:16 12.61525 122.06345 20558 ft 399 kts 326°
2026-04-19 05:16 12.63809 122.04755 20918 ft 401 kts 326°
2026-04-19 05:16 12.66133 122.03140 21270 ft 403 kts 326°
2026-04-19 05:16 12.68472 122.01513 21617 ft 406 kts 325°
2026-04-19 05:17 12.70821 121.99877 21942 ft 409 kts 325°
2026-04-19 05:17 12.73159 121.98249 22318 ft 409 kts 325°
2026-04-19 05:17 12.75524 121.96601 22768 ft 409 kts 325°
2026-04-19 05:17 12.77888 121.94954 23210 ft 409 kts 325°
2026-04-19 05:18 12.80213 121.93334 23635 ft 409 kts 325°
2026-04-19 05:18 12.82582 121.91682 24076 ft 409 kts 325°
2026-04-19 05:18 12.84927 121.90048 24484 ft 409 kts 325°
2026-04-19 05:18 12.87287 121.88403 24835 ft 412 kts 325°
2026-04-19 05:19 12.89676 121.86736 25204 ft 413 kts 325°
2026-04-19 05:19 12.92037 121.85088 25584 ft 414 kts 325°
2026-04-19 05:19 12.94440 121.83413 25864 ft 416 kts 324°
2026-04-19 05:19 12.96846 121.81734 25887 ft 417 kts 325°
2026-04-19 05:20 12.99257 121.80051 25891 ft 417 kts 325°
2026-04-19 05:20 13.01640 121.78387 25893 ft 417 kts 325°
2026-04-19 05:20 13.04058 121.76698 25894 ft 417 kts 325°
2026-04-19 05:20 13.06446 121.75031 25894 ft 417 kts 325°
2026-04-19 05:21 13.08840 121.73357 25895 ft 417 kts 325°
2026-04-19 05:21 13.11252 121.71672 25894 ft 418 kts 324°
2026-04-19 05:21 13.13673 121.69979 25894 ft 418 kts 325°
2026-04-19 05:21 13.16097 121.68284 25895 ft 418 kts 324°
2026-04-19 05:22 13.18494 121.66608 25895 ft 418 kts 324°
2026-04-19 05:22 13.20881 121.64938 25893 ft 417 kts 324°
2026-04-19 05:22 13.23293 121.63250 25894 ft 417 kts 324°
2026-04-19 05:22 13.25702 121.61565 25893 ft 417 kts 324°
2026-04-19 05:23 13.28102 121.59885 25892 ft 417 kts 325°
2026-04-19 05:23 13.30515 121.58193 25892 ft 417 kts 325°
2026-04-19 05:23 13.32934 121.56499 25889 ft 416 kts 325°
2026-04-19 05:23 13.35347 121.54809 25889 ft 416 kts 325°
2026-04-19 05:24 13.37725 121.53141 25889 ft 416 kts 325°
2026-04-19 05:24 13.40130 121.51454 25884 ft 416 kts 325°
2026-04-19 05:24 13.42541 121.49763 25354 ft 420 kts 325°
2026-04-19 05:24 13.44963 121.48064 24646 ft 421 kts 325°
2026-04-19 05:25 13.47382 121.46364 23972 ft 421 kts 325°
2026-04-19 05:25 13.49796 121.44667 23376 ft 418 kts 325°
2026-04-19 05:25 13.52131 121.43027 23227 ft 403 kts 325°
2026-04-19 05:25 13.54413 121.41425 23106 ft 388 kts 325°
2026-04-19 05:26 13.56619 121.39877 22971 ft 375 kts 325°
2026-04-19 05:26 13.58739 121.38359 22664 ft 368 kts 324°
2026-04-19 05:26 13.60813 121.36818 22247 ft 364 kts 323°
2026-04-19 05:26 13.62831 121.35307 21858 ft 361 kts 323°
2026-04-19 05:27 13.64868 121.33780 21469 ft 357 kts 323°
2026-04-19 05:27 13.66857 121.32292 21107 ft 353 kts 324°
2026-04-19 05:27 13.68826 121.30821 20736 ft 349 kts 324°
2026-04-19 05:27 13.70801 121.29346 20373 ft 346 kts 324°
2026-04-19 05:28 13.72732 121.27906 20003 ft 342 kts 324°
2026-04-19 05:28 13.74655 121.26472 19629 ft 340 kts 324°
2026-04-19 05:28 13.76555 121.25053 19269 ft 337 kts 324°
2026-04-19 05:28 13.78465 121.23628 18916 ft 334 kts 324°
2026-04-19 05:29 13.80331 121.22235 18563 ft 331 kts 325°
2026-04-19 05:29 13.82186 121.20850 18209 ft 328 kts 325°
2026-04-19 05:29 13.84020 121.19482 17872 ft 325 kts 325°
2026-04-19 05:29 13.85840 121.18121 17525 ft 322 kts 325°
2026-04-19 05:30 13.87645 121.16773 17177 ft 319 kts 325°
2026-04-19 05:30 13.89457 121.15419 16823 ft 317 kts 325°
2026-04-19 05:30 13.91239 121.14087 16441 ft 316 kts 325°
2026-04-19 05:30 13.93009 121.12762 16063 ft 314 kts 326°
2026-04-19 05:31 13.94766 121.11448 15692 ft 312 kts 325°
2026-04-19 05:31 13.96518 121.10137 15312 ft 312 kts 326°
2026-04-19 05:31 13.98264 121.08832 14911 ft 311 kts 326°
2026-04-19 05:31 14.00023 121.07516 14548 ft 309 kts 326°
2026-04-19 05:32 14.01749 121.06226 14164 ft 307 kts 326°
2026-04-19 05:32 14.03481 121.04933 13791 ft 306 kts 326°
2026-04-19 05:32 14.05211 121.03642 13410 ft 304 kts 326°
2026-04-19 05:32 14.06909 121.02371 13043 ft 302 kts 326°
2026-04-19 05:33 14.08596 121.01105 12689 ft 300 kts 326°
2026-04-19 05:33 14.10305 120.99826 12320 ft 299 kts 326°
2026-04-19 05:33 14.11983 120.98571 11939 ft 298 kts 326°
2026-04-19 05:33 14.13669 120.97310 11564 ft 297 kts 326°
2026-04-19 05:34 14.15312 120.96079 11395 ft 288 kts 326°
2026-04-19 05:34 14.16919 120.94889 11287 ft 279 kts 328°
2026-04-19 05:34 14.18562 120.93841 11045 ft 274 kts 332°
2026-04-19 05:34 14.20211 120.92861 10697 ft 274 kts 332°
2026-04-19 05:35 14.21883 120.91877 10354 ft 273 kts 332°
2026-04-19 05:35 14.23531 120.90905 10032 ft 272 kts 332°
2026-04-19 05:35 14.25160 120.89928 9835 ft 265 kts 327°
2026-04-19 05:35 14.26376 120.88560 9663 ft 259 kts 293°
2026-04-19 05:36 14.26599 120.86762 9461 ft 257 kts 257°
2026-04-19 05:36 14.25850 120.85086 9168 ft 255 kts 237°
2026-04-19 05:36 14.24899 120.83562 8874 ft 254 kts 238°
2026-04-19 05:36 14.23977 120.82017 8588 ft 254 kts 239°
2026-04-19 05:37 14.23072 120.80437 8303 ft 253 kts 239°
2026-04-19 05:37 14.22193 120.78872 7977 ft 253 kts 241°
2026-04-19 05:37 14.21653 120.77174 7629 ft 253 kts 272°
2026-04-19 05:37 14.22163 120.75483 7316 ft 249 kts 310°
2026-04-19 05:38 14.23511 120.74411 7053 ft 243 kts 335°
2026-04-19 05:38 14.25031 120.73631 6782 ft 242 kts 335°
2026-04-19 05:38 14.26512 120.72825 6504 ft 241 kts 333°
2026-04-19 05:38 14.27994 120.71985 6205 ft 240 kts 333°
2026-04-19 05:39 14.29436 120.71149 5938 ft 238 kts 332°
2026-04-19 05:39 14.30906 120.70341 5640 ft 236 kts 342°
2026-04-19 05:39 14.32492 120.70248 5300 ft 229 kts 21°
2026-04-19 05:39 14.33774 120.71134 5011 ft 224 kts 53°
2026-04-19 05:40 14.34564 120.72514 4751 ft 220 kts 62°
2026-04-19 05:40 14.35290 120.73888 4476 ft 218 kts 62°
2026-04-19 05:40 14.36029 120.75252 4204 ft 216 kts 61°
2026-04-19 05:40 14.36775 120.76609 3989 ft 219 kts 61°
2026-04-19 05:41 14.37522 120.77961 3708 ft 219 kts 60°
2026-04-19 05:41 14.38287 120.79339 3429 ft 218 kts 61°
2026-04-19 05:41 14.39033 120.80682 3163 ft 216 kts 61°
2026-04-19 05:41 14.39793 120.82031 2924 ft 220 kts 60°
2026-04-19 05:42 14.40569 120.83413 2953 ft 220 kts 60°
2026-04-19 05:42 14.41304 120.84731 2958 ft 208 kts 60°
2026-04-19 05:42 14.42022 120.86022 2905 ft 206 kts 61°
2026-04-19 05:42 14.42718 120.87278 2751 ft 196 kts 61°
2026-04-19 05:43 14.43389 120.88490 2486 ft 192 kts 61°
2026-04-19 05:43 14.44049 120.89679 2221 ft 188 kts 61°
2026-04-19 05:43 14.44676 120.90809 1988 ft 174 kts 61°
2026-04-19 05:43 14.45256 120.91853 1757 ft 160 kts 62°
2026-04-19 05:44 14.45793 120.92820 1542 ft 146 kts 62°
2026-04-19 05:44 14.46282 120.93701 1366 ft 140 kts 62°
2026-04-19 05:44 14.46769 120.94580 1209 ft 140 kts 62°
2026-04-19 05:44 14.47255 120.95456 1048 ft 139 kts 62°
2026-04-19 05:45 14.47742 120.96333 882 ft 140 kts 62°
2026-04-19 05:45 14.48235 120.97220 698 ft 140 kts 62°
2026-04-19 05:45 14.48719 120.98091 531 ft 139 kts 61°
2026-04-19 05:45 14.49203 120.98964 325 ft 140 kts 62°
2026-04-19 05:46 14.49700 120.99844 182 ft 139 kts 63°
2026-04-19 05:46 14.50169 121.00702 89 ft 130 kts 63°
2026-04-19 05:46 14.50558 121.01405 81 ft 88 kts 61°
2026-04-19 05:46 14.50760 121.01713 81 ft 40 kts 41°
2026-04-19 05:47 14.50887 121.01784 81 ft 13 kts 334°
2026-04-19 05:47 14.50932 121.01794 81 ft 7 kts 61°
2026-04-19 05:47 14.50958 121.01844 81 ft 8 kts 63°
2026-04-19 05:47 14.50991 121.01901 81 ft 9 kts 59°
2026-04-19 05:48 14.51028 121.01966 81 ft 11 kts 60°
2026-04-19 05:48 14.51085 121.01973 81 ft 11 kts 313°
2026-04-19 05:48 14.51143 121.01914 81 ft 12 kts 316°
2026-04-19 05:48 14.51205 121.01849 81 ft 13 kts 315°
2026-04-19 05:49 14.51273 121.01778 81 ft 13 kts 314°
2026-04-19 05:49 14.51347 121.01701 81 ft 16 kts 315°
2026-04-19 05:49 14.51429 121.01621 81 ft 15 kts 333°
2026-04-19 05:49 14.51517 121.01667 81 ft 14 kts 44°
2026-04-19 05:50 14.51588 121.01740 81 ft 14 kts 46°
2026-04-19 05:50 14.51669 121.01788 81 ft 13 kts 354°
2026-04-19 05:50 14.51739 121.01731 81 ft 12 kts 314°
2026-04-19 05:50 14.51801 121.01666 81 ft 12 kts 315°
2026-04-19 05:51 14.51804 121.01616 81 ft 6 kts 222°
2026-04-19 05:51 14.51772 121.01585 81 ft 5 kts 222°
2026-04-19 05:51 14.51770 121.01583 81 ft 0 kts 223°